Lid_Strength_Index
2 3 3 3 3 1 1 1 1 1 0 0 0 0 0 1 2 4 7 5 4 2 1 6 9 10 11 13 12 12 17 19 17 16 15 13 14 12 11 11 10 10 7 6 3
2 2 3 4 3 1 2 2 1 1 1 1 1 1 1 1 4 7 3 0 0 -1 9 9 11 11 13 14 13 14 18 16 13 14 15 13 13 13 12 12 11 10 7 3 3
2 2 3 3 3 1 2 2 2 1 1 1 1 1 1 2 7 8 1 0 -0 -1 8 9 10 12 14 14 14 16 16 14 13 12 13 14 13 12 13 13 12 12 11 7 4
2 2 2 3 3 2 2 2 2 2 1 1 1 2 2 4 15 7 -2 -1 -1 0 7 9 11 13 14 15 14 16 14 13 13 12 13 13 13 13 13 12 11 11 10 9 5
1 2 3 3 3 2 2 2 2 2 2 2 2 2 4 9 9 7 -1 -1 1 2 7 9 11 13 13 13 13 15 13 13 12 13 13 13 14 13 13 11 10 10 10 10 9
1 1 3 3 3 3 2 2 2 2 2 2 2 3 6 12 7 2 0 1 2 6 8 8 10 10 12 12 13 13 13 13 13 13 13 14 13 13 12 10 10 10 11 11 11
1 1 3 3 4 3 2 2 2 3 2 2 2 4 7 9 4 2 2 4 3 6 7 8 7 8 9 12 12 12 13 12 12 12 13 13 14 14 10 10 11 11 11 11 10
2 2 3 3 4 3 3 2 3 3 3 2 1 4 9 4 4 5 5 6 5 6 6 7 7 9 10 10 10 12 12 14 11 11 10 10 14 10 9 9 10 10 10 10 10
2 3 3 3 4 4 3 3 2 2 2 2 4 6 9 2 3 3 5 6 6 7 7 6 8 10 9 12 14 13 15 14 12 10 10 12 14 10 9 10 10 10 9 9 8
2 3 3 3 4 4 4 4 3 2 2 3 4 8 6 6 3 4 4 5 7 8 8 9 10 11 12 13 16 14 15 13 13 11 12 14 13 11 10 10 10 10 10 9 8
1 1 3 3 3 4 6 6 7 7 5 8 8 7 5 3 4 5 4 5 6 8 11 10 12 13 11 11 11 12 13 13 12 10 12 13 13 11 10 11 10 10 10 10 9
1 1 2 3 3 4 6 9 5 6 9 6 6 5 4 4 6 7 5 8 9 12 11 12 13 10 10 10 11 12 13 13 12 10 12 12 12 11 11 11 10 10 10 10 9
1 1 2 1 3 5 8 8 5 5 9 7 6 7 5 4 6 8 7 8 10 13 13 13 11 9 10 11 12 13 14 13 12 11 12 13 14 13 10 10 9 9 9 9 9
1 1 2 3 6 7 9 7 6 6 12 9 8 6 5 5 7 6 7 7 10 12 12 13 10 10 11 12 11 14 11 11 11 13 16 13 18 14 12 11 10 9 8 8 8
2 2 3 3 6 9 6 7 7 8 19 8 7 3 5 8 7 9 6 7 10 10 11 12 12 12 12 11 10 12 10 11 12 14 16 15 17 15 13 12 11 9 8 8 8
2 2 3 5 5 7 6 6 8 13 19 11 8 8 8 8 7 7 8 6 7 10 11 11 9 10 10 9 9 9 12 13 14 15 18 16 16 16 14 12 9 8 8 8 8
2 3 5 5 7 5 6 8 13 17 9 11 11 9 8 9 8 8 10 10 12 14 14 12 11 10 8 11 9 11 14 18 18 18 18 14 15 15 11 9 8 9 9 9 9
2 4 6 5 6 5 8 10 17 13 12 8 10 10 11 9 9 9 10 12 10 11 13 14 15 10 8 10 12 12 14 17 20 20 18 13 16 14 9 8 8 7 8 7 8
4 7 6 6 5 6 9 14 15 12 10 10 10 12 11 9 10 10 11 11 10 12 12 13 14 9 8 8 10 13 15 13 16 16 18 16 14 11 9 9 8 8 7 7 7
7 7 5 4 4 6 9 13 11 9 8 9 12 11 13 12 12 12 12 9 10 9 10 11 15 10 9 9 9 11 10 16 16 21 22 18 17 16 12 11 10 10 10 8 7
9 7 4 3 5 7 12 12 10 7 7 9 10 11 12 12 11 12 12 10 9 10 10 12 14 13 12 13 14 14 15 15 15 17 20 21 18 12 11 10 11 10 10 9 8
11 10 4 4 9 9 11 9 8 8 7 8 9 9 10 11 12 12 12 10 8 9 12 11 13 16 14 12 11 13 14 14 18 18 17 17 17 10 10 10 10 10 10 9 8
11 10 4 4 12 11 9 9 8 8 9 9 9 9 10 11 12 11 10 8 7 9 11 11 15 18 18 14 12 13 13 13 13 15 17 19 17 9 10 10 10 10 9 8 8
9 10 9 7 8 10 11 10 9 7 8 8 9 9 11 12 12 12 11 9 8 8 6 9 13 15 18 17 14 15 13 12 14 16 17 16 15 11 10 10 9 9 8 9 8
8 10 10 11 11 11 11 11 10 10 8 8 10 10 11 13 12 12 11 10 8 7 10 11 15 14 14 13 12 13 13 13 14 14 16 15 14 12 10 10 9 9 8 8 8
9 10 9 9 9 10 11 10 10 10 10 9 10 10 11 13 12 12 12 12 12 10 12 13 15 14 15 12 13 14 12 12 12 12 13 12 13 9 9 10 10 9 9 9 9
7 8 9 10 10 10 10 9 9 10 9 8 9 10 11 11 10 11 11 11 10 11 13 13 14 16 17 14 14 16 14 13 12 12 12 15 12 9 9 9 9 10 9 9 9